| time (UTC) | temp F | wind direction | speed MPH | gust MPH | rain 1hr in | rain 24hr in | rain mn in | humidity % | barometer mb |
| 20260506160017 | 54 | 0.0 | 0.0 | 0.00 | 0.49 | 0.05 | 70 | 1014.5 | |
| 20260506155017 | 54 | 0.0 | 0.0 | 0.00 | 0.49 | 0.05 | 75 | 1014.4 | |
| 20260506154017 | 53 | 0.0 | 0.0 | 0.00 | 0.49 | 0.05 | 75 | 1014.5 | |
| 20260506153017 | 53 | 0.0 | 0.0 | 0.00 | 0.49 | 0.05 | 75 | 1014.5 | |
| 20260506152017 | 52 | 0.0 | 0.0 | 0.00 | 0.49 | 0.05 | 79 | 1014.4 | |
| 20260506151057 | 52 | 0.0 | 0.0 | 0.00 | 0.49 | 0.05 | 84 | 1014.3 | |
| 20260506150017 | 51 | 0.0 | 0.0 | 0.00 | 0.49 | 0.05 | 84 | 1014.2 | |
| 20260506145037 | 51 | 0.0 | 0.0 | 0.00 | 0.49 | 0.05 | 86 | 1014.2 | |
| 20260506144017 | 51 | 0.0 | 5.0 | 0.00 | 0.49 | 0.05 | 89 | 1014.1 | |
| 20260506143017 | 50 | 0.0 | 0.0 | 0.00 | 0.49 | 0.05 | 90 | 1014.0 | |
| 20260506142017 | 50 | 0.0 | 0.0 | 0.00 | 0.49 | 0.05 | 94 | 1013.8 | |
| 20260506141017 | 50 | 0.0 | 0.0 | 0.00 | 0.49 | 0.05 | 95 | 1013.8 | |
| 20260506140017 | 50 | 0.0 | 0.0 | 0.00 | 0.49 | 0.05 | 97 | 1013.7 | |
| 20260506135017 | 49 | 0.0 | 0.0 | 0.00 | 0.49 | 0.05 | 97 | 1013.7 | |
| 20260506134017 | 48 | 0.0 | 0.0 | 0.00 | 0.49 | 0.05 | 97 | 1013.4 | |
| 20260506133017 | 48 | 0.0 | 0.0 | 0.00 | 0.49 | 0.05 | 97 | 1013.2 | |
| 20260506132037 | 48 | 0.0 | 0.0 | 0.00 | 0.49 | 0.05 | 97 | 1013.0 | |
| 20260506131017 | 47 | 0.0 | 0.0 | 0.00 | 0.49 | 0.05 | 97 | 1013.2 | |
| 20260506130037 | 47 | 0.0 | 0.0 | 0.00 | 0.49 | 0.05 | 97 | 1013.3 | |
| 20260506125017 | 46 | 0.0 | 0.0 | 0.00 | 0.49 | 0.05 | 97 | 1013.3 | |
| 20260506124017 | 46 | 0.0 | 0.0 | 0.00 | 0.49 | 0.05 | 97 | 1013.2 | |
| 20260506123017 | 46 | 0.0 | 0.0 | 0.00 | 0.49 | 0.05 | 97 | 1013.1 | |
| 20260506122017 | 45 | 0.0 | 0.0 | 0.00 | 0.49 | 0.05 | 97 | 1013.0 | |
| 20260506121037 | 45 | 0.0 | 0.0 | 0.00 | 0.49 | 0.05 | 97 | 1013.1 | |
| 20260506120017 | 45 | 0.0 | 0.0 | 0.00 | 0.49 | 0.05 | 97 | 1012.6 | |
| 20260506115037 | 45 | 0.0 | 0.0 | 0.00 | 0.49 | 0.05 | 97 | 1012.2 | |
| 20260506114017 | 45 | 0.0 | 0.0 | 0.00 | 0.49 | 0.05 | 97 | 1012.2 | |
| 20260506113017 | 44 | 0.0 | 0.0 | 0.00 | 0.49 | 0.05 | 97 | 1011.7 | |
| 20260506112017 | 44 | 0.0 | 0.0 | 0.00 | 0.49 | 0.05 | 96 | 1011.8 | |
| 20260506111017 | 44 | 0.0 | 0.0 | 0.00 | 0.49 | 0.05 | 96 | 1011.6 | |
| 20260506110017 | 44 | 0.0 | 0.0 | 0.00 | 0.49 | 0.05 | 96 | 1011.1 | |
| 20260506105017 | 45 | 0.0 | 0.0 | 0.00 | 0.49 | 0.05 | 96 | 1011.0 | |
| 20260506104037 | 45 | 0.0 | 0.0 | 0.00 | 0.49 | 0.05 | 96 | 1010.8 | |
| 20260506103017 | 45 | 0.0 | 0.0 | 0.00 | 0.49 | 0.05 | 97 | 1010.8 | |
| 20260506102017 | 45 | 0.0 | 0.0 | 0.00 | 0.50 | 0.05 | 97 | 1010.7 | |
| 20260506101017 | 46 | 0.0 | 0.0 | 0.00 | 0.50 | 0.05 | 97 | 1010.3 | |
| 20260506100017 | 46 | 0.0 | 0.0 | 0.00 | 0.50 | 0.05 | 97 | 1010.3 | |
| 20260506095017 | 46 | 0.0 | 0.0 | 0.00 | 0.50 | 0.05 | 96 | 1010.7 | |
| 20260506094017 | 46 | 0.0 | 0.0 | 0.00 | 0.50 | 0.05 | 96 | 1011.2 | |
| 20260506093017 | 46 | 0.0 | 0.0 | 0.00 | 0.50 | 0.05 | 96 | 1010.8 | |
| 20260506092017 | 46 | 0.0 | 0.0 | 0.00 | 0.50 | 0.05 | 96 | 1010.8 | |
| 20260506091017 | 46 | 0.0 | 0.0 | 0.00 | 0.50 | 0.05 | 96 | 1010.5 | |
| 20260506090017 | 46 | 0.0 | 0.0 | 0.00 | 0.51 | 0.05 | 96 | 1010.3 | |
| 20260506085037 | 46 | 0.0 | 0.0 | 0.00 | 0.54 | 0.05 | 96 | 1010.4 | |
| 20260506084017 | 45 | 0.0 | 0.0 | 0.00 | 0.57 | 0.05 | 96 | 1010.1 | |
| 20260506083017 | 45 | 0.0 | 0.0 | 0.00 | 0.60 | 0.05 | 96 | 1010.2 | |
| 20260506082057 | 45 | 0.0 | 0.0 | 0.00 | 0.64 | 0.05 | 96 | 1010.6 | |
| 20260506081018 | 46 | 0.0 | 0.0 | 0.01 | 0.66 | 0.05 | 96 | 1010.8 | |
| 20260506073017 | 45 | 0.0 | 0.0 | 0.01 | 0.72 | 0.05 | 96 | 1010.0 | |
| 20260506072017 | 45 | 0.0 | 0.0 | 0.01 | 0.72 | 0.05 | 96 | 1010.1 | |
| 20260506071017 | 45 | 0.0 | 0.0 | 0.00 | 0.74 | 0.04 | 96 | 1009.4 | |
| 20260506062017 | 46 | 0.0 | 0.0 | 0.01 | 0.85 | 0.04 | 96 | 1010.3 | |
| 20260506061017 | 46 | 0.0 | 0.0 | 0.01 | 0.86 | 0.04 | 96 | 1010.1 | |
| 20260506051017 | 47 | 0.0 | 0.0 | 0.03 | 0.93 | 0.03 | 96 | 1009.8 | |
| 20260506045037 | 47 | 0.0 | 0.0 | 0.05 | 0.93 | 0.03 | 96 | 1010.2 | |
| 20260506044037 | 47 | 0.0 | 0.0 | 0.04 | 0.92 | 0.02 | 96 | 1010.4 | |
| 20260506043017 | 47 | 0.0 | 0.0 | 0.04 | 0.91 | 0.01 | 96 | 1010.3 | |
| 20260506042038 | 47 | 0.0 | 0.0 | 0.04 | 0.91 | 0.01 | 96 | 1009.4 | |
| 20260506041017 | 47 | 0.0 | 0.0 | 0.04 | 0.90 | 0.00 | 96 | 1009.2 | |
| 20260506040017 | 47 | 0.0 | 0.0 | 0.06 | 0.90 | 0.00 | 96 | 1009.7 | |
| 20260506035037 | 47 | 0.0 | 0.0 | 0.05 | 0.88 | 0.88 | 96 | 1009.5 | |
| 20260506034017 | 47 | 0.0 | 0.0 | 0.06 | 0.88 | 0.88 | 96 | 1009.7 | |
| 20260506033017 | 47 | 0.0 | 0.0 | 0.05 | 0.87 | 0.87 | 96 | 1009.1 | |
| 20260506032017 | 47 | 0.0 | 0.0 | 0.05 | 0.87 | 0.87 | 96 | 1009.3 | |
| 20260506031018 | 47 | 0.0 | 0.0 | 0.04 | 0.86 | 0.86 | 96 | 1009.7 | |
| 20260506030017 | 47 | 0.0 | 0.0 | 0.04 | 0.84 | 0.84 | 96 | 1010.0 | |
| 20260506025017 | 47 | 0.0 | 0.0 | 0.08 | 0.83 | 0.83 | 96 | 1009.3 | |
| 20260506024017 | 47 | 0.0 | 0.0 | 0.07 | 0.82 | 0.82 | 96 | 1009.1 | |
| 20260506023017 | 47 | 0.0 | 0.0 | 0.07 | 0.82 | 0.82 | 96 | 1008.6 | |
| 20260506022017 | 47 | 0.0 | 0.0 | 0.08 | 0.82 | 0.82 | 96 | 1008.6 | |
| 20260506021017 | 47 | 0.0 | 0.0 | 0.08 | 0.82 | 0.82 | 96 | 1008.3 | |
| 20260506020018 | 47 | 0.0 | 0.0 | 0.06 | 0.80 | 0.80 | 96 | 1009.2 | |
| 20260506015017 | 47 | 0.0 | 0.0 | 0.02 | 0.75 | 0.75 | 96 | 1009.7 | |
| 20260506014017 | 47 | 0.0 | 0.0 | 0.03 | 0.75 | 0.75 | 96 | 1008.0 | |
| 20260506013037 | 47 | 0.0 | 0.0 | 0.04 | 0.75 | 0.75 | 96 | 1007.5 | |
| 20260506012037 | 47 | 0.0 | 0.0 | 0.03 | 0.74 | 0.74 | 96 | 1008.0 | |
| 20260506011037 | 47 | 0.0 | 0.0 | 0.04 | 0.74 | 0.74 | 96 | 1007.7 | |
| 20260506010017 | 47 | 0.0 | 0.0 | 0.05 | 0.74 | 0.74 | 96 | 1007.9 | |
| 20260506005018 | 47 | 0.0 | 0.0 | 0.04 | 0.73 | 0.73 | 96 | 1008.3 | |
| 20260506004017 | 47 | 0.0 | 0.0 | 0.03 | 0.72 | 0.72 | 96 | 1008.3 | |
| 20260506003017 | 47 | 0.0 | 0.0 | 0.02 | 0.71 | 0.71 | 96 | 1008.2 | |
| 20260506002037 | 47 | 0.0 | 0.0 | 0.03 | 0.71 | 0.71 | 96 | 1007.7 | |
| 20260506001017 | 47 | 0.0 | 0.0 | 0.02 | 0.70 | 0.70 | 96 | 1008.2 | |
| 20260506000017 | 47 | 0.0 | 0.0 | 0.02 | 0.69 | 0.69 | 96 | 1008.2 | |
| 20260505235037 | 47 | 0.0 | 0.0 | 0.03 | 0.69 | 0.69 | 96 | 1007.6 | |
| 20260505234018 | 47 | 0.0 | 0.0 | 0.04 | 0.69 | 0.69 | 95 | 1007.8 | |
| 20260505233017 | 47 | 0.0 | 0.0 | 0.05 | 0.69 | 0.69 | 95 | 1008.1 | |
| 20260505232017 | 47 | 0.0 | 0.0 | 0.05 | 0.68 | 0.68 | 95 | 1008.2 | |
| 20260505231037 | 47 | 0.0 | 0.0 | 0.07 | 0.68 | 0.68 | 95 | 1008.7 | |
| 20260505230017 | 47 | 0.0 | 0.0 | 0.06 | 0.67 | 0.67 | 95 | 1008.2 | |
| 20260505225017 | 47 | 0.0 | 0.0 | 0.06 | 0.66 | 0.66 | 95 | 1008.5 | |
| 20260505224017 | 48 | 0.0 | 0.0 | 0.05 | 0.65 | 0.65 | 95 | 1008.4 | |
| 20260505223057 | 48 | 0.0 | 0.0 | 0.04 | 0.64 | 0.64 | 95 | 1008.2 | |
| 20260505222038 | 48 | 0.0 | 0.0 | 0.04 | 0.63 | 0.63 | 95 | 1008.3 | |
| 20260505221017 | 49 | 0.0 | 0.0 | 0.02 | 0.61 | 0.61 | 95 | 1008.2 | |
| 20260505220017 | 49 | 0.0 | 0.0 | 0.02 | 0.61 | 0.61 | 95 | 1008.5 | |
| 20260505215017 | 49 | 0.0 | 0.0 | 0.01 | 0.60 | 0.60 | 95 | 1008.4 | |
| 20260505214017 | 50 | 0.0 | 0.0 | 0.01 | 0.60 | 0.60 | 95 | 1008.3 | |
| 20260505213017 | 50 | 0.0 | 3.0 | 0.01 | 0.60 | 0.60 | 94 | 1008.0 | |
| 20260505212018 | 51 | 0.0 | 2.0 | 0.00 | 0.59 | 0.59 | 94 | 1008.0 | |
| 20260505211017 | 53 | 0.0 | 0.0 | 0.00 | 0.59 | 0.59 | 94 | 1007.8 | |
| 20260505210017 | 55 | 0.0 | 0.0 | 0.00 | 0.59 | 0.59 | 95 | 1007.8 | |
| 20260505205017 | 56 | 0.0 | 0.0 | 0.00 | 0.59 | 0.59 | 95 | 1007.5 | |
| 20260505204037 | 57 | 0.0 | 0.0 | 0.00 | 0.59 | 0.59 | 95 | 1007.5 | |
| 20260505203017 | 57 | 0.0 | 0.0 | 0.00 | 0.59 | 0.59 | 95 | 1007.6 | |
| 20260505202017 | 58 | 0.0 | 0.0 | 0.00 | 0.59 | 0.59 | 95 | 1007.7 | |
| 20260505201018 | 58 | 0.0 | 0.0 | 0.00 | 0.59 | 0.59 | 95 | 1007.6 | |
| 20260505200017 | 58 | 0.0 | 0.0 | 0.00 | 0.59 | 0.59 | 95 | 1007.6 | |
| 20260505195017 | 58 | 0.0 | 0.0 | 0.01 | 0.59 | 0.59 | 95 | 1007.6 | |
| 20260505194017 | 58 | 0.0 | 0.0 | 0.01 | 0.59 | 0.59 | 96 | 1007.6 | |
| 20260505193018 | 58 | 0.0 | 0.0 | 0.02 | 0.59 | 0.59 | 96 | 1007.7 | |
| 20260505192017 | 58 | 0.0 | 3.0 | 0.02 | 0.59 | 0.59 | 95 | 1007.8 | |
| 20260505191017 | 58 | 0.0 | 0.0 | 0.02 | 0.59 | 0.59 | 95 | 1007.8 | |
| 20260505190018 | 58 | 0.0 | 0.0 | 0.02 | 0.59 | 0.59 | 95 | 1007.9 | |
| 20260505185017 | 58 | 0.0 | 0.0 | 0.02 | 0.58 | 0.58 | 95 | 1008.0 | |
| 20260505184017 | 58 | 0.0 | 0.0 | 0.04 | 0.58 | 0.58 | 95 | 1008.0 | |
| 20260505183017 | 58 | 0.0 | 0.0 | 0.04 | 0.57 | 0.57 | 95 | 1008.0 | |
| 20260505182017 | 58 | 0.0 | 0.0 | 0.06 | 0.58 | 0.57 | 95 | 1007.9 | |
| 20260505181017 | 58 | 0.0 | 0.0 | 0.08 | 0.59 | 0.57 | 95 | 1008.1 | |
| 20260505180017 | 58 | 0.0 | 0.0 | 0.09 | 0.60 | 0.57 | 95 | 1007.8 | |
| 20260505175018 | 58 | 0.0 | 0.0 | 0.09 | 0.60 | 0.56 | 94 | 1008.1 | |
| 20260505174017 | 58 | 0.0 | 0.0 | 0.08 | 0.58 | 0.54 | 94 | 1008.6 | |
| 20260505173017 | 58 | 0.0 | 0.0 | 0.07 | 0.57 | 0.53 | 94 | 1008.8 | |
| 20260505172017 | 58 | 0.0 | 0.0 | 0.05 | 0.55 | 0.51 | 93 | 1009.0 | |
| 20260505170017 | 58 | 0.0 | 0.0 | 0.02 | 0.52 | 0.48 | 93 | 1009.2 | |
| 20260505165017 | 58 | 0.0 | 0.0 | 0.01 | 0.51 | 0.47 | 92 | 1008.8 | |
| 20260505164018 | 58 | 0.0 | 0.0 | 0.00 | 0.50 | 0.46 | 91 | 1009.5 | |
| 20260505163037 | 59 | 0.0 | 0.0 | 0.00 | 0.50 | 0.46 | 91 | 1009.5 | |
| 20260505162017 | 59 | 0.0 | 0.0 | 0.00 | 0.50 | 0.46 | 91 | 1009.4 |